date,time,SUV Intensity [MED/Hr],UV Index,Daily total [MED],Since Last [MED]
28/07/2022,00:10:57,0.000,0.0,0.0,0.0
28/07/2022,00:11:57,0.000,0.0,0.0,0.0
28/07/2022,00:12:57,0.000,0.0,0.0,0.0
28/07/2022,00:13:57,0.000,0.0,0.0,0.0
28/07/2022,00:14:57,0.000,0.0,0.0,0.0
28/07/2022,00:15:57,0.000,0.0,0.0,0.0
28/07/2022,00:16:57,0.000,0.0,0.0,0.0
28/07/2022,00:17:57,-0.002,0.0,0.0,0.0
28/07/2022,00:18:57,0.000,0.0,0.0,0.0
28/07/2022,00:19:57,0.000,0.0,0.0,0.0
28/07/2022,00:20:57,0.000,0.0,0.0,0.0
28/07/2022,00:21:57,0.000,0.0,0.0,0.0
28/07/2022,00:22:57,0.000,0.0,0.0,0.0
28/07/2022,00:23:57,0.000,0.0,0.0,0.0
28/07/2022,00:24:57,0.000,0.0,0.0,0.0
28/07/2022,00:25:57,0.000,0.0,0.0,0.0
28/07/2022,00:26:57,0.000,0.0,0.0,0.0
28/07/2022,00:27:57,0.000,0.0,0.0,0.0
28/07/2022,00:28:57,0.000,0.0,0.0,0.0
28/07/2022,00:29:56,0.000,0.0,0.0,0.0
28/07/2022,00:31:05,0.000,0.0,0.0,0.0
28/07/2022,00:31:57,-0.001,0.0,0.0,0.0
28/07/2022,00:32:56,0.000,0.0,0.0,0.0
28/07/2022,00:33:58,0.000,0.0,0.0,0.0
28/07/2022,00:34:57,0.000,0.0,0.0,0.0
28/07/2022,00:35:57,0.000,0.0,0.0,0.0
28/07/2022,00:36:57,0.000,0.0,0.0,0.0
28/07/2022,00:37:57,0.000,0.0,0.0,0.0
28/07/2022,00:38:57,0.000,0.0,0.0,0.0
28/07/2022,00:39:57,0.000,0.0,0.0,0.0
28/07/2022,00:40:57,0.000,0.0,0.0,0.0
28/07/2022,00:41:57,0.000,0.0,0.0,0.0
28/07/2022,00:42:57,0.000,0.0,0.0,0.0
28/07/2022,00:43:57,0.000,0.0,0.0,0.0
28/07/2022,00:44:57,0.000,0.0,0.0,0.0
28/07/2022,00:45:57,0.000,0.0,0.0,0.0
28/07/2022,00:47:05,0.000,0.0,0.0,0.0
28/07/2022,00:47:57,0.000,0.0,0.0,0.0
28/07/2022,00:48:57,0.000,0.0,0.0,0.0
28/07/2022,00:49:57,0.000,0.0,0.0,0.0
28/07/2022,00:50:57,0.000,0.0,0.0,0.0
28/07/2022,00:51:57,0.000,0.0,0.0,0.0
28/07/2022,00:52:57,0.000,0.0,0.0,0.0
28/07/2022,00:53:57,0.000,0.0,0.0,0.0
28/07/2022,00:54:57,0.000,0.0,0.0,0.0
28/07/2022,00:55:57,0.000,0.0,0.0,0.0
28/07/2022,00:57:06,0.000,0.0,0.0,0.0
28/07/2022,00:58:05,0.000,0.0,0.0,0.0
28/07/2022,00:58:57,0.000,0.0,0.0,0.0
28/07/2022,00:59:57,0.000,0.0,0.0,0.0
28/07/2022,01:00:57,0.000,0.0,0.0,0.0
28/07/2022,01:01:57,-0.001,0.0,0.0,0.0
28/07/2022,01:02:57,0.000,0.0,0.0,0.0
28/07/2022,01:03:57,0.000,0.0,0.0,0.0
28/07/2022,01:04:57,0.000,0.0,0.0,0.0
28/07/2022,01:06:05,0.000,0.0,0.0,0.0
28/07/2022,01:06:57,0.000,0.0,0.0,0.0
28/07/2022,01:07:57,0.000,0.0,0.0,0.0
28/07/2022,01:09:05,0.000,0.0,0.0,0.0
28/07/2022,01:09:57,0.000,0.0,0.0,0.0
28/07/2022,01:10:57,0.000,0.0,0.0,0.0
28/07/2022,01:11:57,0.000,0.0,0.0,0.0
28/07/2022,01:12:57,0.000,0.0,0.0,0.0
28/07/2022,01:13:57,0.000,0.0,0.0,0.0
28/07/2022,01:14:57,0.000,0.0,0.0,0.0
28/07/2022,01:15:57,0.000,0.0,0.0,0.0
28/07/2022,01:16:58,0.000,0.0,0.0,0.0
28/07/2022,01:17:57,0.000,0.0,0.0,0.0
28/07/2022,01:19:05,0.000,0.0,0.0,0.0
28/07/2022,01:19:57,0.000,0.0,0.0,0.0
28/07/2022,01:20:57,0.000,0.0,0.0,0.0
28/07/2022,01:22:06,0.000,0.0,0.0,0.0
28/07/2022,01:22:56,0.000,0.0,0.0,0.0
28/07/2022,01:23:57,0.000,0.0,0.0,0.0
28/07/2022,01:25:14,0.000,0.0,0.0,0.0
28/07/2022,01:26:58,0.000,0.0,0.0,0.0
28/07/2022,01:27:57,0.000,0.0,0.0,0.0
28/07/2022,01:28:57,0.000,0.0,0.0,0.0
28/07/2022,01:29:59,0.000,0.0,0.0,0.0
28/07/2022,01:30:57,0.000,0.0,0.0,0.0
28/07/2022,01:32:05,0.000,0.0,0.0,0.0
28/07/2022,01:32:57,0.000,0.0,0.0,0.0
28/07/2022,01:33:57,0.000,0.0,0.0,0.0
28/07/2022,01:34:57,0.000,0.0,0.0,0.0
28/07/2022,01:35:57,0.000,0.0,0.0,0.0
28/07/2022,01:36:57,0.000,0.0,0.0,0.0
28/07/2022,01:37:57,0.000,0.0,0.0,0.0
28/07/2022,01:38:57,0.000,0.0,0.0,0.0
28/07/2022,01:39:58,0.000,0.0,0.0,0.0
28/07/2022,01:41:05,0.000,0.0,0.0,0.0
28/07/2022,01:41:57,0.000,0.0,0.0,0.0
28/07/2022,01:42:57,0.000,0.0,0.0,0.0
28/07/2022,01:43:57,0.000,0.0,0.0,0.0
28/07/2022,01:44:57,0.000,0.0,0.0,0.0
28/07/2022,01:45:57,0.000,0.0,0.0,0.0
28/07/2022,01:46:57,0.000,0.0,0.0,0.0
28/07/2022,01:47:57,0.000,0.0,0.0,0.0
28/07/2022,01:48:57,0.000,0.0,0.0,0.0
28/07/2022,01:49:57,0.000,0.0,0.0,0.0
28/07/2022,01:50:57,0.000,0.0,0.0,0.0
28/07/2022,01:51:58,0.000,0.0,0.0,0.0
28/07/2022,01:52:57,0.000,0.0,0.0,0.0
28/07/2022,01:54:05,0.000,0.0,0.0,0.0
28/07/2022,01:54:57,0.000,0.0,0.0,0.0
28/07/2022,01:55:58,0.000,0.0,0.0,0.0
28/07/2022,01:56:57,0.000,0.0,0.0,0.0
28/07/2022,01:57:57,0.000,0.0,0.0,0.0
28/07/2022,01:58:57,0.000,0.0,0.0,0.0
28/07/2022,01:59:57,0.000,0.0,0.0,0.0
28/07/2022,02:00:57,0.000,0.0,0.0,0.0
28/07/2022,02:01:57,0.000,0.0,0.0,0.0
28/07/2022,02:02:58,0.000,0.0,0.0,0.0
28/07/2022,02:03:57,0.000,0.0,0.0,0.0
28/07/2022,02:04:57,0.000,0.0,0.0,0.0
28/07/2022,02:05:57,0.000,0.0,0.0,0.0
28/07/2022,02:07:05,0.000,0.0,0.0,0.0
28/07/2022,02:07:57,0.000,0.0,0.0,0.0
28/07/2022,02:08:57,0.000,0.0,0.0,0.0
28/07/2022,02:10:05,0.000,0.0,0.0,0.0
28/07/2022,02:10:57,0.000,0.0,0.0,0.0
28/07/2022,02:11:59,0.000,0.0,0.0,0.0
28/07/2022,02:13:05,0.000,0.0,0.0,0.0
28/07/2022,02:13:57,0.000,0.0,0.0,0.0
28/07/2022,02:14:57,0.000,0.0,0.0,0.0
28/07/2022,02:15:57,0.000,0.0,0.0,0.0
28/07/2022,02:16:57,0.000,0.0,0.0,0.0
28/07/2022,02:17:57,0.000,0.0,0.0,0.0
28/07/2022,02:18:57,0.000,0.0,0.0,0.0
28/07/2022,02:19:57,0.000,0.0,0.0,0.0
28/07/2022,02:20:57,0.000,0.0,0.0,0.0
28/07/2022,02:21:57,0.000,0.0,0.0,0.0
28/07/2022,02:22:57,0.000,0.0,0.0,0.0
28/07/2022,02:23:57,0.000,0.0,0.0,0.0
28/07/2022,02:24:57,0.000,0.0,0.0,0.0
28/07/2022,02:26:05,0.000,0.0,0.0,0.0
28/07/2022,02:26:57,0.000,0.0,0.0,0.0
28/07/2022,02:27:58,0.000,0.0,0.0,0.0
28/07/2022,02:28:57,0.000,0.0,0.0,0.0
28/07/2022,02:29:57,0.000,0.0,0.0,0.0
28/07/2022,02:30:57,0.000,0.0,0.0,0.0
28/07/2022,02:31:59,0.000,0.0,0.0,0.0
28/07/2022,02:32:57,0.000,0.0,0.0,0.0
28/07/2022,02:33:57,0.000,0.0,0.0,0.0
28/07/2022,02:34:57,0.000,0.0,0.0,0.0
28/07/2022,02:36:05,0.000,0.0,0.0,0.0
28/07/2022,02:36:57,0.000,0.0,0.0,0.0
28/07/2022,02:37:57,0.000,0.0,0.0,0.0
28/07/2022,02:38:57,0.000,0.0,0.0,0.0
28/07/2022,02:40:14,0.000,0.0,0.0,0.0
28/07/2022,02:41:58,0.000,0.0,0.0,0.0
28/07/2022,02:42:57,0.000,0.0,0.0,0.0
28/07/2022,02:43:57,0.000,0.0,0.0,0.0
28/07/2022,02:44:58,0.000,0.0,0.0,0.0
28/07/2022,02:45:57,0.000,0.0,0.0,0.0
28/07/2022,02:46:57,0.000,0.0,0.0,0.0
28/07/2022,02:47:58,0.000,0.0,0.0,0.0
28/07/2022,02:48:57,0.000,0.0,0.0,0.0
28/07/2022,02:49:57,0.000,0.0,0.0,0.0
28/07/2022,02:50:57,0.000,0.0,0.0,0.0
28/07/2022,02:52:07,0.000,0.0,0.0,0.0
28/07/2022,02:52:57,0.000,0.0,0.0,0.0
28/07/2022,02:53:58,0.001,0.0,0.0,0.0
28/07/2022,02:54:57,0.000,0.0,0.0,0.0
28/07/2022,02:55:57,0.000,0.0,0.0,0.0
28/07/2022,02:56:58,0.000,0.0,0.0,0.0
28/07/2022,02:57:57,0.000,0.0,0.0,0.0
28/07/2022,02:58:58,0.000,0.0,0.0,0.0
28/07/2022,03:00:14,0.000,0.0,0.0,0.0
28/07/2022,03:02:20,0.000,0.0,0.0,0.0
28/07/2022,03:03:58,0.000,0.0,0.0,0.0
28/07/2022,03:04:57,0.000,0.0,0.0,0.0
28/07/2022,03:05:57,0.000,0.0,0.0,0.0
28/07/2022,03:06:57,0.000,0.0,0.0,0.0
28/07/2022,03:07:58,0.000,0.0,0.0,0.0
28/07/2022,03:08:57,0.000,0.0,0.0,0.0
28/07/2022,03:09:57,0.000,0.0,0.0,0.0
28/07/2022,03:10:59,0.001,0.0,0.0,0.0
28/07/2022,03:11:58,0.000,0.0,0.0,0.0
28/07/2022,03:12:58,0.001,0.0,0.0,0.0
28/07/2022,03:13:58,0.000,0.0,0.0,0.0
28/07/2022,03:14:58,0.000,0.0,0.0,0.0
28/07/2022,03:15:57,0.000,0.0,0.0,0.0
28/07/2022,03:16:57,0.000,0.0,0.0,0.0
28/07/2022,03:17:58,0.000,0.0,0.0,0.0
28/07/2022,03:18:57,0.000,0.0,0.0,0.0
28/07/2022,03:19:58,0.000,0.0,0.0,0.0
28/07/2022,03:20:57,0.000,0.0,0.0,0.0
28/07/2022,03:21:57,0.001,0.0,0.0,0.0
28/07/2022,03:22:57,0.000,0.0,0.0,0.0
28/07/2022,03:23:57,0.000,0.0,0.0,0.0
28/07/2022,03:24:57,0.000,0.0,0.0,0.0
28/07/2022,03:25:57,0.000,0.0,0.0,0.0
28/07/2022,03:26:57,0.000,0.0,0.0,0.0
28/07/2022,03:28:10,0.001,0.0,0.0,0.0
28/07/2022,03:29:58,0.001,0.0,0.0,0.0
28/07/2022,03:30:57,0.000,0.0,0.0,0.0
28/07/2022,03:31:58,0.000,0.0,0.0,0.0
28/07/2022,03:32:57,0.000,0.0,0.0,0.0
28/07/2022,03:33:57,0.000,0.0,0.0,0.0
28/07/2022,03:34:57,0.001,0.0,0.0,0.0
28/07/2022,03:35:57,0.000,0.0,0.0,0.0
28/07/2022,03:36:58,0.001,0.0,0.0,0.0
28/07/2022,03:37:59,0.000,0.0,0.0,0.0
28/07/2022,03:38:57,0.000,0.0,0.0,0.0
28/07/2022,03:39:58,0.001,0.0,0.0,0.0
28/07/2022,03:40:58,0.001,0.0,0.0,0.0
28/07/2022,03:41:57,0.001,0.0,0.0,0.0
28/07/2022,03:43:06,0.001,0.0,0.0,0.0
28/07/2022,03:43:57,0.000,0.0,0.0,0.0
28/07/2022,03:44:58,0.000,0.0,0.0,0.0
28/07/2022,03:46:22,0.001,0.0,0.0,0.0
28/07/2022,03:47:58,0.000,0.0,0.0,0.0
28/07/2022,03:48:57,0.001,0.0,0.0,0.0
28/07/2022,03:49:57,0.001,0.0,0.0,0.0
28/07/2022,03:50:57,0.001,0.0,0.0,0.0
28/07/2022,03:51:57,0.001,0.0,0.0,0.0
28/07/2022,03:52:57,0.001,0.0,0.0,0.0
28/07/2022,03:53:58,0.001,0.0,0.0,0.0
28/07/2022,03:54:57,0.001,0.0,0.0,0.0
28/07/2022,03:56:05,0.001,0.0,0.0,0.0
28/07/2022,03:56:57,0.001,0.0,0.0,0.0
28/07/2022,03:57:57,0.001,0.0,0.0,0.0
28/07/2022,03:59:05,0.001,0.0,0.0,0.0
28/07/2022,03:59:58,0.001,0.0,0.0,0.0
28/07/2022,04:00:57,0.001,0.0,0.0,0.0
28/07/2022,04:01:57,0.001,0.0,0.0,0.0
28/07/2022,04:02:59,0.001,0.0,0.0,0.0
28/07/2022,04:03:58,0.001,0.0,0.0,0.0
28/07/2022,04:04:58,0.001,0.0,0.0,0.0
28/07/2022,04:05:58,0.001,0.0,0.0,0.0
28/07/2022,04:06:57,0.002,0.0,0.0,0.0
28/07/2022,04:07:57,0.001,0.0,0.0,0.0
28/07/2022,04:09:05,0.001,0.0,0.0,0.0
28/07/2022,04:09:57,0.001,0.0,0.0,0.0
28/07/2022,04:10:57,0.002,0.0,0.0,0.0
28/07/2022,04:11:58,0.000,0.0,0.0,0.0
28/07/2022,04:12:57,0.001,0.0,0.0,0.0
28/07/2022,04:13:57,0.000,0.0,0.0,0.0
28/07/2022,04:14:57,0.001,0.0,0.0,0.0
28/07/2022,04:15:58,0.002,0.0,0.0,0.0
28/07/2022,04:16:57,0.001,0.0,0.0,0.0
28/07/2022,04:17:57,0.001,0.0,0.0,0.0
28/07/2022,04:18:57,0.001,0.0,0.0,0.0
28/07/2022,04:19:57,0.002,0.0,0.0,0.0
28/07/2022,04:20:57,0.002,0.0,0.0,0.0
28/07/2022,04:22:06,0.002,0.0,0.0,0.0
28/07/2022,04:22:57,0.002,0.0,0.0,0.0
28/07/2022,04:23:59,0.002,0.0,0.0,0.0
28/07/2022,04:24:57,0.002,0.0,0.0,0.0
28/07/2022,04:25:57,0.002,0.0,0.0,0.0
28/07/2022,04:26:58,0.001,0.0,0.0,0.0
28/07/2022,04:27:57,0.002,0.0,0.0,0.0
28/07/2022,04:28:57,0.003,0.0,0.0,0.0
28/07/2022,04:29:57,0.002,0.0,0.0,0.0
28/07/2022,04:30:57,0.003,0.0,0.0,0.0
28/07/2022,04:31:57,0.003,0.0,0.0,0.0
28/07/2022,04:33:10,0.003,0.0,0.0,0.0
28/07/2022,04:34:58,0.002,0.0,0.0,0.0
28/07/2022,04:35:58,0.002,0.0,0.0,0.0
28/07/2022,04:37:06,0.004,0.0,0.0,0.0
28/07/2022,04:38:06,0.004,0.0,0.0,0.0
28/07/2022,04:38:57,0.003,0.0,0.0,0.0
28/07/2022,04:39:57,0.004,0.0,0.0,0.0
28/07/2022,04:40:57,0.004,0.0,0.0,0.0
28/07/2022,04:41:57,0.003,0.0,0.0,0.0
28/07/2022,04:42:58,0.004,0.0,0.0,0.0
28/07/2022,04:43:57,0.004,0.0,0.0,0.0
28/07/2022,04:44:58,0.006,0.0,0.0,0.0
28/07/2022,04:45:58,0.005,0.0,0.0,0.0
28/07/2022,04:46:57,0.005,0.0,0.0,0.0
28/07/2022,04:47:58,0.005,0.0,0.0,0.0
28/07/2022,04:48:57,0.006,0.0,0.0,0.0
28/07/2022,04:50:06,0.005,0.0,0.0,0.0
28/07/2022,04:50:57,0.006,0.0,0.0,0.0
28/07/2022,04:51:58,0.006,0.0,0.0,0.0
28/07/2022,04:53:05,0.006,0.0,0.0,0.0
28/07/2022,04:53:58,0.005,0.0,0.0,0.0
28/07/2022,04:54:57,0.007,0.0,0.0,0.0
28/07/2022,04:55:57,0.007,0.0,0.0,0.0
28/07/2022,04:56:58,0.008,0.0,0.001,0.001
28/07/2022,04:57:57,0.007,0.0,0.001,0.0
28/07/2022,04:58:57,0.008,0.0,0.001,0.0
28/07/2022,04:59:57,0.008,0.0,0.001,0.0
28/07/2022,05:00:57,0.010,0.0,0.001,0.0
28/07/2022,05:01:58,0.009,0.0,0.001,0.0
28/07/2022,05:03:05,0.010,0.0,0.001,0.0
28/07/2022,05:03:58,0.010,0.0,0.002,0.001
28/07/2022,05:04:58,0.011,0.0,0.002,0.0
28/07/2022,05:05:58,0.011,0.0,0.002,0.0
28/07/2022,05:06:59,0.011,0.0,0.002,0.0
28/07/2022,05:07:57,0.011,0.0,0.002,0.0
28/07/2022,05:08:59,0.012,0.0,0.003,0.001
28/07/2022,05:09:57,0.013,0.0,0.003,0.0
28/07/2022,05:10:57,0.013,0.0,0.003,0.0
28/07/2022,05:11:58,0.015,0.0,0.003,0.0
28/07/2022,05:13:06,0.014,0.0,0.003,0.0
28/07/2022,05:13:57,0.015,0.0,0.004,0.001
28/07/2022,05:14:57,0.015,0.0,0.004,0.0
28/07/2022,05:15:58,0.016,0.0,0.004,0.0
28/07/2022,05:16:57,0.017,0.0,0.004,0.0
28/07/2022,05:17:57,0.017,0.0,0.005,0.001
28/07/2022,05:18:58,0.018,0.0,0.005,0.0
28/07/2022,05:19:57,0.018,0.0,0.005,0.0
28/07/2022,05:20:58,0.019,0.0,0.006,0.001
28/07/2022,05:21:57,0.019,0.0,0.006,0.0
28/07/2022,05:22:58,0.020,0.0,0.006,0.0
28/07/2022,05:23:57,0.021,0.0,0.007,0.001
28/07/2022,05:24:57,0.022,0.0,0.007,0.0
28/07/2022,05:25:57,0.023,0.0,0.007,0.0
28/07/2022,05:26:58,0.023,0.0,0.008,0.001
28/07/2022,05:27:57,0.024,0.0,0.008,0.0
28/07/2022,05:28:57,0.025,0.0,0.009,0.001
28/07/2022,05:29:57,0.025,0.0,0.009,0.0
28/07/2022,05:30:58,0.027,0.0,0.009,0.0
28/07/2022,05:31:57,0.027,0.0,0.01,0.001
28/07/2022,05:32:57,0.028,0.0,0.01,0.0
28/07/2022,05:33:58,0.028,0.0,0.011,0.001
28/07/2022,05:34:57,0.029,0.0,0.011,0.0
28/07/2022,05:35:58,0.030,0.0,0.012,0.001
28/07/2022,05:36:58,0.031,0.0,0.012,0.0
28/07/2022,05:37:58,0.031,0.0,0.013,0.001
28/07/2022,05:38:58,0.034,0.0,0.013,0.0
28/07/2022,05:39:57,0.034,0.0,0.014,0.001
28/07/2022,05:41:06,0.035,0.0,0.014,0.0
28/07/2022,05:41:57,0.036,0.0,0.015,0.001
28/07/2022,05:42:57,0.035,0.0,0.016,0.001
28/07/2022,05:43:58,0.037,0.0,0.016,0.0
28/07/2022,05:44:58,0.038,0.0,0.017,0.001
28/07/2022,05:45:58,0.040,0.0,0.017,0.0
28/07/2022,05:46:57,0.040,0.0,0.018,0.001
28/07/2022,05:47:57,0.042,0.0,0.019,0.001
28/07/2022,05:48:58,0.042,0.0,0.019,0.0
28/07/2022,05:49:57,0.042,0.0,0.02,0.001
28/07/2022,05:51:06,0.044,0.0,0.021,0.001
28/07/2022,05:51:56,0.045,0.0,0.022,0.001
28/07/2022,05:52:58,0.046,0.0,0.022,0.0
28/07/2022,05:53:58,0.048,0.0,0.023,0.001
28/07/2022,05:54:58,0.048,0.0,0.024,0.001
28/07/2022,05:55:58,0.048,0.0,0.025,0.001
28/07/2022,05:57:06,0.051,0.0,0.026,0.001
28/07/2022,05:57:57,0.052,0.0,0.026,0.0
28/07/2022,05:58:57,0.054,0.0,0.027,0.001
28/07/2022,05:59:58,0.054,0.0,0.028,0.001
28/07/2022,06:00:58,0.056,0.0,0.029,0.001
28/07/2022,06:01:58,0.057,0.0,0.03,0.001
28/07/2022,06:02:57,0.058,0.0,0.031,0.001
28/07/2022,06:03:58,0.060,0.0,0.032,0.001
28/07/2022,06:04:59,0.061,0.0,0.033,0.001
28/07/2022,06:05:57,0.062,0.0,0.034,0.001
28/07/2022,06:07:07,0.063,0.0,0.035,0.001
28/07/2022,06:07:56,0.063,0.0,0.036,0.001
28/07/2022,06:08:58,0.067,0.0,0.037,0.001
28/07/2022,06:09:57,0.067,0.0,0.038,0.001
28/07/2022,06:10:57,0.068,0.0,0.039,0.001
28/07/2022,06:11:58,0.070,0.0,0.041,0.002
28/07/2022,06:12:57,0.069,0.0,0.042,0.001
28/07/2022,06:13:57,0.071,0.0,0.043,0.001
28/07/2022,06:14:58,0.070,0.0,0.044,0.001
28/07/2022,06:15:57,0.072,0.0,0.045,0.001
28/07/2022,06:16:57,0.073,0.0,0.046,0.001
28/07/2022,06:17:58,0.073,0.0,0.048,0.002
28/07/2022,06:18:57,0.073,0.0,0.049,0.001
28/07/2022,06:19:57,0.075,0.0,0.05,0.001
28/07/2022,06:20:58,0.075,0.0,0.051,0.001
28/07/2022,06:21:58,0.076,0.0,0.053,0.002
28/07/2022,06:22:45,0.077,0.0,0.054,0.001
28/07/2022,06:23:58,0.079,0.0,0.055,0.001
28/07/2022,06:24:58,0.079,0.0,0.057,0.002
28/07/2022,06:25:57,0.082,0.0,0.058,0.001
28/07/2022,06:26:58,0.083,0.0,0.059,0.001
28/07/2022,06:27:58,0.084,0.0,0.061,0.002
28/07/2022,06:28:57,0.085,0.0,0.062,0.001
28/07/2022,06:29:58,0.086,0.0,0.063,0.001
28/07/2022,06:30:58,0.088,0.0,0.065,0.002
28/07/2022,06:31:57,0.089,0.0,0.066,0.001
28/07/2022,06:32:57,0.091,0.0,0.068,0.002
28/07/2022,06:33:58,0.092,0.0,0.069,0.001
28/07/2022,06:34:57,0.093,0.0,0.071,0.002
28/07/2022,06:35:57,0.094,0.0,0.073,0.002
28/07/2022,06:36:58,0.096,0.0,0.074,0.001
28/07/2022,06:37:57,0.099,0.0,0.076,0.002
28/07/2022,06:38:58,0.101,0.0,0.077,0.001
28/07/2022,06:39:57,0.101,0.0,0.079,0.002
28/07/2022,06:40:57,0.104,0.0,0.081,0.002
28/07/2022,06:41:58,0.105,0.0,0.083,0.002
28/07/2022,06:42:57,0.107,0.0,0.084,0.001
28/07/2022,06:43:57,0.110,0.0,0.086,0.002
28/07/2022,06:44:58,0.111,0.0,0.088,0.002
28/07/2022,06:45:57,0.114,0.0,0.09,0.002
28/07/2022,06:46:57,0.116,0.0,0.092,0.002
28/07/2022,06:48:06,0.119,0.0,0.094,0.002
28/07/2022,06:48:58,0.121,0.0,0.096,0.002
28/07/2022,06:49:57,0.124,0.0,0.098,0.002
28/07/2022,06:50:58,0.126,0.0,0.1,0.002
28/07/2022,06:51:57,0.130,0.0,0.102,0.002
28/07/2022,06:52:58,0.132,0.0,0.104,0.002
28/07/2022,06:53:58,0.133,0.0,0.106,0.002
28/07/2022,06:54:58,0.139,0.0,0.109,0.003
28/07/2022,06:55:58,0.141,0.0,0.111,0.002
28/07/2022,06:56:58,0.143,0.0,0.113,0.002
28/07/2022,06:57:57,0.144,0.0,0.116,0.003
28/07/2022,06:58:57,0.146,0.0,0.118,0.002
28/07/2022,06:59:58,0.149,0.0,0.121,0.003
28/07/2022,07:00:58,0.153,0.0,0.123,0.002
28/07/2022,07:01:58,0.156,0.0,0.126,0.003
28/07/2022,07:02:57,0.159,0.0,0.128,0.002
28/07/2022,07:04:14,0.163,0.0,0.132,0.004
28/07/2022,07:05:58,0.169,0.0,0.136,0.004
28/07/2022,07:06:58,0.171,0.0,0.139,0.003
28/07/2022,07:07:58,0.173,0.0,0.142,0.003
28/07/2022,07:08:57,0.175,0.0,0.145,0.003
28/07/2022,07:09:57,0.178,0.0,0.148,0.003
28/07/2022,07:10:58,0.181,0.0,0.151,0.003
28/07/2022,07:11:58,0.185,0.0,0.154,0.003
28/07/2022,07:13:05,0.188,0.0,0.158,0.004
28/07/2022,07:13:58,0.191,0.0,0.16,0.002
28/07/2022,07:14:58,0.193,0.0,0.164,0.004
28/07/2022,07:15:58,0.195,0.0,0.167,0.003
28/07/2022,07:16:58,0.195,0.0,0.17,0.003
28/07/2022,07:17:58,0.196,0.0,0.173,0.003
28/07/2022,07:18:58,0.196,0.0,0.177,0.004
28/07/2022,07:19:58,0.194,0.0,0.18,0.003
28/07/2022,07:20:57,0.192,0.0,0.183,0.003
28/07/2022,07:21:59,0.192,0.0,0.186,0.003
28/07/2022,07:22:58,0.191,0.0,0.189,0.003
28/07/2022,07:23:58,0.191,0.0,0.193,0.004
28/07/2022,07:24:58,0.192,0.0,0.196,0.003
28/07/2022,07:26:06,0.191,0.0,0.199,0.003
28/07/2022,07:26:58,0.189,0.0,0.202,0.003
28/07/2022,07:27:58,0.189,0.0,0.205,0.003
28/07/2022,07:28:58,0.191,0.0,0.209,0.004
28/07/2022,07:30:06,0.192,0.0,0.212,0.003
28/07/2022,07:30:57,0.193,0.0,0.215,0.003
28/07/2022,07:31:58,0.193,0.0,0.218,0.003
28/07/2022,07:32:58,0.194,0.0,0.221,0.003
28/07/2022,07:33:58,0.192,0.0,0.225,0.004
28/07/2022,07:34:57,0.191,0.0,0.228,0.003
28/07/2022,07:35:58,0.190,0.0,0.231,0.003
28/07/2022,07:36:58,0.192,0.0,0.234,0.003
28/07/2022,07:38:01,0.192,0.0,0.237,0.003
28/07/2022,07:38:57,0.192,0.0,0.241,0.004
28/07/2022,07:39:58,0.192,0.0,0.244,0.003
28/07/2022,07:40:57,0.192,0.0,0.247,0.003
28/07/2022,07:41:57,0.191,0.0,0.25,0.003
28/07/2022,07:43:06,0.191,0.0,0.254,0.004
28/07/2022,07:43:58,0.190,0.0,0.256,0.002
28/07/2022,07:45:06,0.191,0.0,0.26,0.004
28/07/2022,07:45:58,0.191,0.0,0.263,0.003
28/07/2022,07:46:57,0.190,0.0,0.266,0.003
28/07/2022,07:47:59,0.190,0.0,0.269,0.003
28/07/2022,07:48:58,0.189,0.0,0.272,0.003
28/07/2022,07:49:58,0.188,0.0,0.275,0.003
28/07/2022,07:50:57,0.187,0.0,0.279,0.004
28/07/2022,07:51:57,0.186,0.0,0.282,0.003
28/07/2022,07:52:58,0.185,0.0,0.285,0.003
28/07/2022,07:53:57,0.184,0.0,0.288,0.003
28/07/2022,07:54:58,0.183,0.0,0.291,0.003
28/07/2022,07:55:58,0.183,0.0,0.294,0.003
28/07/2022,07:56:58,0.182,0.0,0.297,0.003
28/07/2022,07:58:06,0.182,0.0,0.3,0.003
28/07/2022,07:58:58,0.183,0.0,0.303,0.003
28/07/2022,07:59:58,0.183,0.0,0.306,0.003
28/07/2022,08:01:06,0.185,0.0,0.31,0.004
28/07/2022,08:01:58,0.185,0.0,0.312,0.002
28/07/2022,08:02:58,0.187,0.0,0.315,0.003
28/07/2022,08:03:58,0.188,0.0,0.318,0.003
28/07/2022,08:04:58,0.190,0.0,0.322,0.004
28/07/2022,08:05:58,0.191,0.0,0.325,0.003
28/07/2022,08:06:59,0.192,0.0,0.328,0.003
28/07/2022,08:07:57,0.194,0.0,0.331,0.003
28/07/2022,08:08:58,0.196,0.0,0.334,0.003
28/07/2022,08:09:57,0.198,0.0,0.338,0.004
28/07/2022,08:10:57,0.200,0.0,0.341,0.003
28/07/2022,08:11:57,0.202,0.0,0.344,0.003
28/07/2022,08:13:06,0.203,0.0,0.348,0.004
28/07/2022,08:13:59,0.204,0.0,0.351,0.003
28/07/2022,08:14:58,0.202,0.0,0.355,0.004
28/07/2022,08:15:58,0.203,0.0,0.358,0.003
28/07/2022,08:16:58,0.201,0.0,0.361,0.003
28/07/2022,08:17:58,0.202,0.0,0.365,0.004
28/07/2022,08:18:57,0.203,0.0,0.368,0.003
28/07/2022,08:19:58,0.201,0.0,0.371,0.003
28/07/2022,08:20:57,0.202,0.0,0.375,0.004
28/07/2022,08:21:58,0.202,0.0,0.378,0.003
28/07/2022,08:22:58,0.202,0.0,0.381,0.003
28/07/2022,08:23:57,0.203,0.0,0.385,0.004
28/07/2022,08:24:58,0.204,0.0,0.388,0.003
28/07/2022,08:25:58,0.205,0.0,0.392,0.004
28/07/2022,08:26:58,0.205,0.0,0.395,0.003
28/07/2022,08:27:58,0.206,0.0,0.398,0.003
28/07/2022,08:28:58,0.205,0.0,0.402,0.004
28/07/2022,08:29:57,0.206,0.0,0.405,0.003
28/07/2022,08:30:58,0.206,0.0,0.409,0.004
28/07/2022,08:31:58,0.209,0.0,0.412,0.003
28/07/2022,08:33:14,0.209,0.0,0.417,0.005
28/07/2022,08:34:58,0.213,0.0,0.423,0.006
28/07/2022,08:35:58,0.214,0.0,0.426,0.003
28/07/2022,08:36:58,0.217,0.0,0.43,0.004
28/07/2022,08:37:57,0.218,1.0,0.433,0.003
28/07/2022,08:38:58,0.222,1.0,0.437,0.004
28/07/2022,08:39:58,0.224,1.0,0.441,0.004
28/07/2022,08:41:06,0.229,1.0,0.445,0.004
28/07/2022,08:41:57,0.233,1.0,0.448,0.003
28/07/2022,08:43:06,0.241,1.0,0.453,0.005
28/07/2022,08:44:06,0.245,1.0,0.457,0.004
28/07/2022,08:44:58,0.251,1.0,0.461,0.004
28/07/2022,08:45:58,0.257,1.0,0.465,0.004
28/07/2022,08:46:57,0.261,1.0,0.469,0.004
28/07/2022,08:47:57,0.269,1.0,0.474,0.005
28/07/2022,08:48:58,0.274,1.0,0.478,0.004
28/07/2022,08:49:58,0.281,1.0,0.483,0.005
28/07/2022,08:50:58,0.288,1.0,0.487,0.004
28/07/2022,08:51:58,0.297,1.0,0.492,0.005
28/07/2022,08:53:06,0.307,1.0,0.498,0.006
28/07/2022,08:53:58,0.315,1.0,0.503,0.005
28/07/2022,08:54:58,0.325,1.0,0.508,0.005
28/07/2022,08:55:58,0.335,1.0,0.513,0.005
28/07/2022,08:56:58,0.344,1.0,0.519,0.006
28/07/2022,08:57:58,0.352,1.0,0.525,0.006
28/07/2022,08:58:58,0.359,1.0,0.531,0.006
28/07/2022,08:59:57,0.364,1.0,0.537,0.006
28/07/2022,09:00:58,0.371,1.0,0.543,0.006
28/07/2022,09:01:57,0.376,1.0,0.549,0.006
28/07/2022,09:03:06,0.383,1.0,0.556,0.007
28/07/2022,09:03:57,0.387,1.0,0.562,0.006
28/07/2022,09:04:58,0.395,1.0,0.568,0.006
28/07/2022,09:06:06,0.402,1.0,0.576,0.008
28/07/2022,09:06:58,0.405,1.0,0.582,0.006
28/07/2022,09:07:58,0.412,1.0,0.589,0.007
28/07/2022,09:09:06,0.419,1.0,0.596,0.007
28/07/2022,09:09:57,0.424,1.0,0.602,0.006
28/07/2022,09:10:57,0.432,1.0,0.61,0.008
28/07/2022,09:11:58,0.442,1.0,0.617,0.007
28/07/2022,09:12:58,0.454,1.0,0.624,0.007
28/07/2022,09:13:58,0.468,1.0,0.632,0.008
28/07/2022,09:14:57,0.483,1.0,0.64,0.008
28/07/2022,09:16:31,0.504,1.0,0.653,0.013
28/07/2022,09:17:58,0.522,1.0,0.665,0.012
28/07/2022,09:19:06,0.535,1.0,0.675,0.01
28/07/2022,09:19:58,0.543,1.0,0.683,0.008
28/07/2022,09:20:58,0.554,1.0,0.692,0.009
28/07/2022,09:21:58,0.564,1.0,0.701,0.009
28/07/2022,09:22:51,0.573,1.0,0.71,0.009
28/07/2022,09:23:58,0.585,1.0,0.72,0.01
28/07/2022,09:24:58,0.595,1.0,0.73,0.01
28/07/2022,09:26:10,0.602,1.0,0.742,0.012
28/07/2022,09:27:59,0.619,1.0,0.761,0.019
28/07/2022,09:29:08,0.625,1.0,0.773,0.012
28/07/2022,09:29:57,0.632,1.0,0.781,0.008
28/07/2022,09:30:57,0.639,1.0,0.792,0.011
28/07/2022,09:32:06,0.646,1.0,0.804,0.012
28/07/2022,09:32:58,0.650,1.0,0.814,0.01
28/07/2022,09:33:58,0.651,1.0,0.824,0.01
28/07/2022,09:35:06,0.650,1.0,0.837,0.013
28/07/2022,09:35:58,0.646,1.0,0.846,0.009
28/07/2022,09:36:58,0.636,1.0,0.857,0.011
28/07/2022,09:37:58,0.624,1.0,0.867,0.01
28/07/2022,09:38:58,0.611,1.0,0.877,0.01
28/07/2022,09:39:58,0.599,1.0,0.888,0.011
28/07/2022,09:40:58,0.586,1.0,0.897,0.009
28/07/2022,09:41:58,0.578,1.0,0.907,0.01
28/07/2022,09:42:58,0.573,1.0,0.917,0.01
28/07/2022,09:43:58,0.567,1.0,0.926,0.009
28/07/2022,09:45:06,0.558,1.0,0.937,0.011
28/07/2022,09:45:57,0.552,1.0,0.945,0.008
28/07/2022,09:46:58,0.541,1.0,0.954,0.009
28/07/2022,09:48:06,0.533,1.0,0.964,0.01
28/07/2022,09:48:57,0.524,1.0,0.972,0.008
28/07/2022,09:49:57,0.520,1.0,0.98,0.008
28/07/2022,09:50:58,0.516,1.0,0.989,0.009
28/07/2022,09:51:58,0.513,1.0,0.998,0.009
28/07/2022,09:52:58,0.511,1.0,1.006,0.008
28/07/2022,09:53:57,0.512,1.0,1.015,0.009
28/07/2022,09:54:57,0.514,1.0,1.023,0.008
28/07/2022,09:55:58,0.518,1.0,1.032,0.009
28/07/2022,09:56:58,0.523,1.0,1.041,0.009
28/07/2022,09:58:06,0.528,1.0,1.05,0.009
28/07/2022,09:58:57,0.534,1.0,1.058,0.008
28/07/2022,10:00:05,0.537,1.0,1.068,0.01
28/07/2022,10:01:06,0.539,1.0,1.077,0.009
28/07/2022,10:01:58,0.542,1.0,1.085,0.008
28/07/2022,10:02:58,0.544,1.0,1.094,0.009
28/07/2022,10:03:58,0.545,1.0,1.103,0.009
28/07/2022,10:04:57,0.545,1.0,1.112,0.009
28/07/2022,10:05:58,0.541,1.0,1.121,0.009
28/07/2022,10:06:58,0.539,1.0,1.13,0.009
28/07/2022,10:07:58,0.533,1.0,1.139,0.009
28/07/2022,10:08:58,0.529,1.0,1.148,0.009
28/07/2022,10:09:58,0.526,1.0,1.157,0.009
28/07/2022,10:10:58,0.523,1.0,1.166,0.009
28/07/2022,10:11:57,0.522,1.0,1.174,0.008
28/07/2022,10:12:58,0.522,1.0,1.183,0.009
28/07/2022,10:13:57,0.522,1.0,1.192,0.009
28/07/2022,10:14:58,0.519,1.0,1.2,0.008
28/07/2022,10:15:58,0.518,1.0,1.209,0.009
28/07/2022,10:16:57,0.519,1.0,1.218,0.009
28/07/2022,10:17:58,0.517,1.0,1.226,0.008
28/07/2022,10:18:58,0.515,1.0,1.235,0.009